Time,TemperatureF,DewpointF,PressureIn,WindDirection,WindDirectionDegrees,WindSpeedMPH,WindSpeedGustMPH,Humidity,HourlyPrecipIn,Conditions,Clouds,dailyrainin,SoftwareType,DateUTC
2013-03-12 00:00:00,50.0,45.0,30.10,SE,129,0.0,0.0,83,0.00,,,0.00,VWS V13.01,2013-03-12 04:00:00,
2013-03-12 00:05:00,50.0,45.0,30.10,SE,129,0.0,0.0,83,0.00,,,0.00,VWS V13.01,2013-03-12 04:05:00,
2013-03-12 00:10:00,50.0,45.0,30.10,SE,129,0.0,0.0,83,0.00,,,0.00,VWS V13.01,2013-03-12 04:10:00,
2013-03-12 00:15:00,50.0,45.0,30.10,SE,129,0.0,0.0,83,0.00,,,0.00,VWS V13.01,2013-03-12 04:15:00,
2013-03-12 00:20:00,50.0,45.0,30.10,SE,129,0.0,0.0,83,0.00,,,0.00,VWS V13.01,2013-03-12 04:20:00,
2013-03-12 00:25:00,49.8,44.9,30.10,SE,129,0.0,0.0,83,0.00,,,0.00,VWS V13.01,2013-03-12 04:25:00,
2013-03-12 00:30:00,50.0,45.0,30.07,SE,129,0.0,0.0,83,0.00,,,0.00,VWS V13.01,2013-03-12 04:30:00,
2013-03-12 00:35:00,49.8,44.9,30.07,SE,129,0.0,0.0,83,0.00,,,0.00,VWS V13.01,2013-03-12 04:35:00,
2013-03-12 00:40:00,49.8,44.9,30.07,SE,129,0.0,0.0,83,0.00,,,0.00,VWS V13.01,2013-03-12 04:40:00,
2013-03-12 00:45:00,49.6,44.7,30.07,SE,129,0.0,0.0,83,0.00,,,0.00,VWS V13.01,2013-03-12 04:45:00,
2013-03-12 00:50:00,49.6,44.7,30.07,SE,129,0.0,0.0,83,0.00,,,0.00,VWS V13.01,2013-03-12 04:50:00,
2013-03-12 00:55:00,49.5,44.5,30.07,SE,129,0.0,0.0,83,0.00,,,0.00,VWS V13.01,2013-03-12 04:55:00,
2013-03-12 01:00:00,49.5,44.5,30.07,SE,129,0.0,0.0,83,0.00,,,0.00,VWS V13.01,2013-03-12 05:00:00,
2013-03-12 01:05:00,49.5,44.5,30.07,SE,129,0.0,0.0,83,0.00,,,0.00,VWS V13.01,2013-03-12 05:05:00,
2013-03-12 01:10:00,49.5,44.5,30.07,SE,129,0.0,0.0,83,0.00,,,0.00,VWS V13.01,2013-03-12 05:10:00,
2013-03-12 01:15:00,49.3,44.3,30.04,SE,129,0.0,0.0,83,0.00,,,0.00,VWS V13.01,2013-03-12 05:15:00,
2013-03-12 01:20:00,49.3,44.3,30.04,SE,129,0.0,0.0,83,0.00,,,0.00,VWS V13.01,2013-03-12 05:20:00,
2013-03-12 01:25:00,49.3,44.3,30.04,SE,129,0.0,0.0,83,0.00,,,0.00,VWS V13.01,2013-03-12 05:25:00,
2013-03-12 01:30:00,49.3,44.7,30.01,SE,129,0.0,0.0,84,0.00,,,0.00,VWS V13.01,2013-03-12 05:30:00,
2013-03-12 01:35:00,49.3,44.7,30.01,SE,129,0.0,0.0,84,0.00,,,0.00,VWS V13.01,2013-03-12 05:35:00,
2013-03-12 01:40:00,49.3,44.7,30.01,SE,129,0.0,0.0,84,0.00,,,0.00,VWS V13.01,2013-03-12 05:40:00,
2013-03-12 01:45:00,49.3,44.7,30.01,SE,129,0.0,0.0,84,0.00,,,0.00,VWS V13.01,2013-03-12 05:45:00,
2013-03-12 01:50:00,49.3,44.7,30.01,SE,129,0.0,0.0,84,0.00,,,0.00,VWS V13.01,2013-03-12 05:50:00,
2013-03-12 01:55:00,49.3,44.7,30.01,SE,129,0.0,0.0,84,0.00,,,0.00,VWS V13.01,2013-03-12 05:55:00,
2013-03-12 02:00:00,49.5,44.8,30.01,SE,129,0.0,2.2,84,0.00,,,0.00,VWS V13.01,2013-03-12 06:00:00,
2013-03-12 02:05:00,49.5,44.8,30.01,SE,129,0.0,0.0,84,0.00,,,0.00,VWS V13.01,2013-03-12 06:05:00,
2013-03-12 02:10:00,49.6,45.0,30.01,SE,129,0.0,0.0,84,0.00,,,0.00,VWS V13.01,2013-03-12 06:10:00,
2013-03-12 02:15:00,49.6,45.0,30.01,SE,129,0.0,0.0,84,0.00,,,0.00,VWS V13.01,2013-03-12 06:15:00,
2013-03-12 02:20:00,49.6,45.0,30.01,SE,129,0.0,0.0,84,0.00,,,0.00,VWS V13.01,2013-03-12 06:20:00,
2013-03-12 02:25:00,49.6,45.0,30.01,SE,129,0.0,0.0,84,0.00,,,0.00,VWS V13.01,2013-03-12 06:25:00,
2013-03-12 02:30:00,49.6,45.0,30.01,SE,129,0.0,0.0,84,0.00,,,0.00,VWS V13.01,2013-03-12 06:30:00,
2013-03-12 02:35:00,49.8,45.2,30.01,SE,129,0.0,0.0,84,0.00,,,0.00,VWS V13.01,2013-03-12 06:35:00,
2013-03-12 02:40:00,49.8,45.2,30.01,SE,129,0.0,2.7,84,0.00,,,0.00,VWS V13.01,2013-03-12 06:40:00,
2013-03-12 02:45:00,50.0,45.4,29.98,East,98,0.0,2.7,84,0.00,,,0.00,VWS V13.01,2013-03-12 06:45:00,
2013-03-12 02:50:00,50.2,45.2,29.98,East,99,0.0,0.0,83,0.00,,,0.00,VWS V13.01,2013-03-12 06:50:00,
2013-03-12 02:55:00,50.4,45.4,29.98,East,99,0.0,2.2,83,0.00,,,0.00,VWS V13.01,2013-03-12 06:55:00,
2013-03-12 03:00:00,50.4,45.1,29.98,East,98,0.0,0.0,82,0.00,,,0.00,VWS V13.01,2013-03-12 07:00:00,
2013-03-12 03:05:00,50.4,45.1,29.98,East,98,0.0,0.0,82,0.00,,,0.00,VWS V13.01,2013-03-12 07:05:00,
2013-03-12 03:10:00,50.4,44.8,29.98,East,98,0.0,2.7,81,0.00,,,0.00,VWS V13.01,2013-03-12 07:10:00,
2013-03-12 03:14:00,50.5,44.6,29.98,ESE,121,2.2,3.1,80,0.00,,,0.00,VWS V13.01,2013-03-12 07:14:00,
2013-03-12 03:19:00,50.7,44.5,29.98,ESE,122,0.0,0.0,79,0.00,,,0.00,VWS V13.01,2013-03-12 07:19:00,
2013-03-12 03:24:00,50.9,44.3,29.98,ESE,121,0.0,0.0,78,0.00,,,0.00,VWS V13.01,2013-03-12 07:24:00,
2013-03-12 03:29:00,50.9,44.0,29.98,ESE,122,0.0,0.0,77,0.00,,,0.00,VWS V13.01,2013-03-12 07:29:00,
2013-03-12 03:30:00,49.9,46.8,29.99,SSW,202,0.0,2.0,89,0.00,,,-99.99,WeatherLink 5.9.3,2013-03-12 07:30:00,
2013-03-12 03:34:00,50.9,44.0,29.98,ESE,121,0.0,0.0,77,0.00,,,0.00,VWS V13.01,2013-03-12 07:34:00,
2013-03-12 03:39:00,50.7,43.4,29.98,ESE,121,0.0,2.2,76,0.00,,,0.00,VWS V13.01,2013-03-12 07:39:00,
2013-03-12 03:44:00,50.7,43.4,29.98,ESE,121,0.0,2.2,76,0.00,,,0.00,VWS V13.01,2013-03-12 07:44:00,
2013-03-12 03:49:00,50.7,43.4,29.98,ESE,122,3.1,3.1,76,0.00,,,0.00,VWS V13.01,2013-03-12 07:49:00,
2013-03-12 03:54:00,50.9,43.6,29.98,ESE,121,0.0,3.1,76,0.00,,,0.00,VWS V13.01,2013-03-12 07:54:00,
2013-03-12 03:59:00,51.1,43.4,29.98,ESE,122,0.0,2.7,75,0.00,,,0.00,VWS V13.01,2013-03-12 07:59:00,
2013-03-12 04:00:00,50.1,46.7,29.98,ESE,112,0.0,2.0,88,0.00,,,-99.99,WeatherLink 5.9.3,2013-03-12 08:00:00,
2013-03-12 04:04:00,51.3,43.3,29.98,ESE,121,0.0,0.0,74,0.00,,,0.00,VWS V13.01,2013-03-12 08:04:00,
2013-03-12 04:09:00,51.3,42.9,29.98,ESE,122,0.0,2.7,73,0.00,,,0.00,VWS V13.01,2013-03-12 08:09:00,
2013-03-12 04:14:00,51.4,43.1,29.98,ESE,121,0.0,0.0,73,0.00,,,0.00,VWS V13.01,2013-03-12 08:14:00,
2013-03-12 04:19:00,51.4,43.1,29.98,ESE,122,0.0,0.0,73,0.00,,,0.00,VWS V13.01,2013-03-12 08:19:00,
2013-03-12 04:24:00,51.3,43.3,29.98,ESE,122,0.0,0.0,74,0.00,,,0.00,VWS V13.01,2013-03-12 08:24:00,
2013-03-12 04:29:00,51.3,43.3,29.98,ESE,122,0.0,0.0,74,0.00,,,0.00,VWS V13.01,2013-03-12 08:29:00,
2013-03-12 04:30:00,50.8,47.4,29.98,ESE,112,0.0,3.0,88,0.00,,,-99.99,WeatherLink 5.9.3,2013-03-12 08:30:00,
2013-03-12 04:34:00,51.1,43.4,29.98,ESE,121,0.0,0.0,75,0.00,,,0.00,VWS V13.01,2013-03-12 08:34:00,
2013-03-12 04:39:00,50.9,43.3,29.98,ESE,122,0.0,0.0,75,0.00,,,0.00,VWS V13.01,2013-03-12 08:39:00,
2013-03-12 04:44:00,50.7,43.4,29.98,ESE,122,0.0,0.0,76,0.00,,,0.00,VWS V13.01,2013-03-12 08:44:00,
2013-03-12 04:49:00,50.5,43.3,29.95,ESE,122,0.0,0.0,76,0.00,,,0.00,VWS V13.01,2013-03-12 08:49:00,
2013-03-12 04:54:00,50.5,44.0,29.95,ESE,122,0.0,0.0,78,0.00,,,0.00,VWS V13.01,2013-03-12 08:54:00,
2013-03-12 04:59:00,50.4,44.4,29.95,ESE,122,0.0,0.0,80,0.00,,,0.00,VWS V13.01,2013-03-12 08:59:00,
2013-03-12 05:00:00,49.9,47.7,29.97,North,-999,0.0,0.0,92,0.02,,,-99.99,WeatherLink 5.9.3,2013-03-12 09:00:00,
2013-03-12 05:04:00,50.2,44.6,29.95,ESE,122,0.0,0.0,81,0.00,,,0.00,VWS V13.01,2013-03-12 09:04:00,
2013-03-12 05:09:00,50.2,44.9,29.95,ESE,121,0.0,0.0,82,0.00,,,0.00,VWS V13.01,2013-03-12 09:09:00,
2013-03-12 05:14:00,50.0,45.0,29.95,ESE,122,0.0,0.0,83,0.00,,,0.00,VWS V13.01,2013-03-12 09:14:00,
2013-03-12 05:19:00,49.6,45.0,29.95,ESE,122,0.0,0.0,84,0.00,,,0.00,VWS V13.01,2013-03-12 09:19:00,
2013-03-12 05:24:00,49.6,45.3,29.95,ESE,122,0.0,0.0,85,0.00,,,0.00,VWS V13.01,2013-03-12 09:24:00,
2013-03-12 05:29:00,49.5,45.5,29.95,ESE,122,0.0,0.0,86,0.00,,,0.00,VWS V13.01,2013-03-12 09:29:00,
2013-03-12 05:30:00,48.5,46.9,29.95,North,-999,0.0,0.0,94,0.06,,,-99.99,WeatherLink 5.9.3,2013-03-12 09:30:00,
2013-03-12 05:34:00,49.5,45.5,29.95,ESE,122,0.0,0.0,86,0.00,,,0.00,VWS V13.01,2013-03-12 09:34:00,
2013-03-12 05:39:00,49.5,45.5,29.95,ESE,122,0.0,0.0,86,0.00,,,0.00,VWS V13.01,2013-03-12 09:39:00,
2013-03-12 05:44:00,49.5,45.8,29.92,ESE,121,0.0,0.0,87,0.00,,,0.00,VWS V13.01,2013-03-12 09:44:00,
2013-03-12 05:49:00,49.3,45.9,29.92,ESE,122,0.0,0.0,88,0.00,,,0.00,VWS V13.01,2013-03-12 09:49:00,
2013-03-12 05:54:00,49.3,45.9,29.92,ESE,122,0.0,0.0,88,0.00,,,0.00,VWS V13.01,2013-03-12 09:54:00,
2013-03-12 05:59:00,49.3,46.2,29.92,ESE,122,0.0,0.0,89,0.00,,,0.00,VWS V13.01,2013-03-12 09:59:00,
2013-03-12 06:00:00,47.7,46.3,29.94,North,-999,0.0,0.0,95,0.06,,,-99.99,WeatherLink 5.9.3,2013-03-12 10:00:00,
2013-03-12 06:04:00,49.3,46.2,29.92,ESE,122,0.0,0.0,89,0.00,,,0.00,VWS V13.01,2013-03-12 10:04:00,
2013-03-12 06:09:00,49.1,46.3,29.92,ESE,122,0.0,0.0,90,0.00,,,0.00,VWS V13.01,2013-03-12 10:09:00,
2013-03-12 06:14:00,49.1,46.3,29.92,ESE,122,0.0,0.0,90,0.00,,,0.00,VWS V13.01,2013-03-12 10:14:00,
2013-03-12 06:19:00,49.3,46.5,29.92,ESE,122,0.0,0.0,90,0.00,,,0.00,VWS V13.01,2013-03-12 10:19:00,
2013-03-12 06:24:00,49.3,46.8,29.92,ESE,122,0.0,0.0,91,0.00,,,0.00,VWS V13.01,2013-03-12 10:24:00,
2013-03-12 06:29:00,49.3,46.5,29.92,ESE,122,0.0,0.0,90,0.00,,,0.00,VWS V13.01,2013-03-12 10:29:00,
2013-03-12 06:30:00,47.5,46.4,29.95,North,-999,0.0,0.0,96,0.05,,,-99.99,WeatherLink 5.9.3,2013-03-12 10:30:00,
2013-03-12 06:34:00,49.3,46.8,29.92,ESE,122,0.0,0.0,91,0.00,,,0.00,VWS V13.01,2013-03-12 10:34:00,
2013-03-12 06:39:00,49.3,46.8,29.95,ESE,122,0.0,0.0,91,0.00,,,0.00,VWS V13.01,2013-03-12 10:39:00,
2013-03-12 06:44:00,49.3,46.8,29.95,ESE,122,0.0,0.0,91,0.00,,,0.00,VWS V13.01,2013-03-12 10:44:00,
2013-03-12 06:49:00,49.5,47.0,29.95,ESE,122,0.0,0.0,91,0.00,,,0.00,VWS V13.01,2013-03-12 10:49:00,
2013-03-12 06:54:00,49.5,47.0,29.95,ESE,122,0.0,0.0,91,0.00,,,0.00,VWS V13.01,2013-03-12 10:54:00,
2013-03-12 06:59:00,49.5,47.0,29.95,ESE,122,0.0,0.0,91,0.00,,,0.00,VWS V13.01,2013-03-12 10:59:00,
2013-03-12 07:00:00,47.6,46.5,29.94,North,-999,0.0,0.0,96,0.05,,,-99.99,WeatherLink 5.9.3,2013-03-12 11:00:00,
2013-03-12 07:04:00,49.5,47.0,29.92,ESE,122,0.0,0.0,91,0.00,,,0.00,VWS V13.01,2013-03-12 11:04:00,
2013-03-12 07:09:00,49.5,47.2,29.92,ESE,122,0.0,0.0,92,0.00,,,0.00,VWS V13.01,2013-03-12 11:09:00,
2013-03-12 07:14:00,49.3,47.1,29.92,ESE,122,0.0,0.0,92,0.00,,,0.00,VWS V13.01,2013-03-12 11:14:00,
2013-03-12 07:19:00,49.3,47.1,29.92,ESE,121,0.0,0.0,92,0.00,,,0.00,VWS V13.01,2013-03-12 11:19:00,
2013-03-12 07:24:00,49.3,47.1,29.92,ESE,122,0.0,0.0,92,0.00,,,0.00,VWS V13.01,2013-03-12 11:24:00,
2013-03-12 07:29:00,49.3,47.1,29.92,ESE,122,0.0,0.0,92,0.00,,,0.00,VWS V13.01,2013-03-12 11:29:00,
2013-03-12 07:30:00,47.8,46.7,29.94,North,-999,0.0,0.0,96,0.04,,,-99.99,WeatherLink 5.9.3,2013-03-12 11:30:00,
2013-03-12 07:34:00,49.3,47.1,29.92,ESE,122,0.0,0.0,92,0.00,,,0.00,VWS V13.01,2013-03-12 11:34:00,
2013-03-12 07:39:00,49.5,47.2,29.92,ESE,122,0.0,0.0,92,0.00,,,0.00,VWS V13.01,2013-03-12 11:39:00,
2013-03-12 07:44:00,49.5,47.2,29.92,ESE,122,0.0,0.0,92,0.00,,,0.00,VWS V13.01,2013-03-12 11:44:00,
2013-03-12 07:49:00,49.6,47.7,29.92,ESE,121,0.0,0.0,93,0.00,,,0.00,VWS V13.01,2013-03-12 11:49:00,
2013-03-12 07:54:00,49.8,47.9,29.92,ESE,121,0.0,0.0,93,0.00,,,0.00,VWS V13.01,2013-03-12 11:54:00,
2013-03-12 07:59:00,49.8,47.9,29.92,ESE,122,0.0,0.0,93,0.00,,,0.00,VWS V13.01,2013-03-12 11:59:00,
2013-03-12 08:00:00,48.2,47.4,29.93,North,-999,0.0,0.0,97,0.05,,,-99.99,WeatherLink 5.9.3,2013-03-12 12:00:00,
2013-03-12 08:04:00,49.8,47.9,29.92,ESE,122,0.0,0.0,93,0.00,,,0.00,VWS V13.01,2013-03-12 12:04:00,
2013-03-12 08:09:00,50.0,48.1,29.92,ESE,122,0.0,0.0,93,0.00,,,0.00,VWS V13.01,2013-03-12 12:09:00,
2013-03-12 08:14:00,50.2,48.2,29.92,ESE,122,0.0,0.0,93,0.00,,,0.00,VWS V13.01,2013-03-12 12:14:00,
2013-03-12 08:19:00,50.2,48.2,29.92,ESE,121,0.0,0.0,93,0.00,,,0.00,VWS V13.01,2013-03-12 12:19:00,
2013-03-12 08:24:00,50.4,48.4,29.92,ESE,122,0.0,0.0,93,0.00,,,0.00,VWS V13.01,2013-03-12 12:24:00,
2013-03-12 08:29:00,50.4,48.4,29.92,ESE,122,2.7,2.7,93,0.00,,,0.00,VWS V13.01,2013-03-12 12:29:00,
2013-03-12 08:30:00,49.0,48.2,29.93,South,180,0.0,2.0,97,0.04,,,-99.99,WeatherLink 5.9.3,2013-03-12 12:30:00,
2013-03-12 08:34:00,50.5,48.9,29.92,East,97,0.0,2.7,94,0.00,,,0.00,VWS V13.01,2013-03-12 12:34:00,
2013-03-12 08:39:00,50.5,48.9,29.92,East,97,0.0,0.0,94,0.00,,,0.00,VWS V13.01,2013-03-12 12:39:00,
2013-03-12 08:44:00,50.9,49.2,29.92,ESE,103,0.0,0.0,94,0.00,,,0.00,VWS V13.01,2013-03-12 12:44:00,
2013-03-12 08:49:00,51.1,49.4,29.92,ESE,103,0.0,0.0,94,0.00,,,0.00,VWS V13.01,2013-03-12 12:49:00,
2013-03-12 08:54:00,51.1,49.4,29.89,ESE,103,0.0,0.0,94,0.00,,,0.00,VWS V13.01,2013-03-12 12:54:00,
2013-03-12 08:59:00,51.3,49.9,29.89,ESE,104,0.0,0.0,95,0.00,,,0.00,VWS V13.01,2013-03-12 12:59:00,
2013-03-12 09:00:00,50.0,49.2,29.91,ESE,112,0.0,3.0,97,0.02,,,-99.99,WeatherLink 5.9.3,2013-03-12 13:00:00,
2013-03-12 09:04:00,51.3,49.9,29.89,ESE,105,0.0,0.0,95,0.00,,,0.00,VWS V13.01,2013-03-12 13:04:00,
2013-03-12 09:09:00,51.4,50.1,29.89,ESE,105,0.0,0.0,95,0.00,,,0.00,VWS V13.01,2013-03-12 13:09:00,
2013-03-12 09:14:00,51.6,50.2,29.89,South,181,0.0,2.2,95,0.00,,,0.00,VWS V13.01,2013-03-12 13:14:00,
2013-03-12 09:19:00,51.6,50.2,29.89,ENE,70,0.0,0.0,95,0.00,,,0.00,VWS V13.01,2013-03-12 13:19:00,
2013-03-12 09:24:00,51.8,50.4,29.89,SSE,148,0.0,0.0,95,0.00,,,0.00,VWS V13.01,2013-03-12 13:24:00,
2013-03-12 09:29:00,51.8,50.7,29.89,ESE,122,0.0,0.0,96,0.00,,,0.00,VWS V13.01,2013-03-12 13:29:00,
2013-03-12 09:30:00,50.6,49.5,29.91,East,90,0.0,4.0,96,0.02,,,-99.99,WeatherLink 5.9.3,2013-03-12 13:30:00,
2013-03-12 09:34:00,52.0,50.9,29.89,ESE,112,0.0,0.0,96,0.00,,,0.00,VWS V13.01,2013-03-12 13:34:00,
2013-03-12 09:39:00,52.0,50.9,29.89,ESE,112,0.0,0.0,96,0.00,,,0.00,VWS V13.01,2013-03-12 13:39:00,
2013-03-12 09:44:00,52.2,51.1,29.89,ESE,112,0.0,0.0,96,0.00,,,0.00,VWS V13.01,2013-03-12 13:44:00,
2013-03-12 09:49:00,52.3,51.2,29.89,ESE,112,0.0,0.0,96,0.00,,,0.00,VWS V13.01,2013-03-12 13:49:00,
2013-03-12 09:54:00,52.3,51.2,29.89,SE,131,0.0,0.0,96,0.00,,,0.00,VWS V13.01,2013-03-12 13:54:00,
2013-03-12 09:59:00,52.5,51.4,29.89,SE,131,0.0,0.0,96,0.00,,,0.00,VWS V13.01,2013-03-12 13:59:00,
2013-03-12 10:00:00,51.2,50.1,29.89,SE,135,0.0,3.0,96,0.01,,,-99.99,WeatherLink 5.9.3,2013-03-12 14:00:00,
2013-03-12 10:04:00,52.5,51.4,29.86,SE,131,0.0,0.0,96,0.00,,,0.00,VWS V13.01,2013-03-12 14:04:00,
2013-03-12 10:09:00,52.7,51.6,29.86,ESE,123,0.0,0.0,96,0.00,,,0.00,VWS V13.01,2013-03-12 14:09:00,
2013-03-12 10:14:00,52.7,51.6,29.86,SE,137,0.0,0.0,96,0.00,,,0.00,VWS V13.01,2013-03-12 14:14:00,
2013-03-12 10:19:00,52.9,51.8,29.86,SSE,153,2.7,2.7,96,0.00,,,0.00,VWS V13.01,2013-03-12 14:19:00,
2013-03-12 10:24:00,52.9,51.8,29.86,SSE,153,2.7,2.7,96,0.00,,,0.00,VWS V13.01,2013-03-12 14:24:00,
2013-03-12 10:29:00,52.9,51.8,29.86,East,83,0.0,3.1,96,0.00,,,0.00,VWS V13.01,2013-03-12 14:29:00,
2013-03-12 10:34:00,53.1,52.0,29.86,ENE,78,0.0,0.0,96,0.00,,,0.00,VWS V13.01,2013-03-12 14:34:00,
2013-03-12 10:39:00,53.1,52.0,29.86,East,87,0.0,0.0,96,0.00,,,0.00,VWS V13.01,2013-03-12 14:39:00,
2013-03-12 10:44:00,53.1,51.7,29.86,East,87,0.0,0.0,95,0.00,,,0.00,VWS V13.01,2013-03-12 14:44:00,
2013-03-12 10:49:00,53.1,51.7,29.86,NE,50,0.0,0.0,95,0.00,,,0.00,VWS V13.01,2013-03-12 14:49:00,
2013-03-12 10:54:00,53.1,51.7,29.86,ENE,57,2.2,2.2,95,0.00,,,0.00,VWS V13.01,2013-03-12 14:54:00,
2013-03-12 10:59:00,53.1,51.7,29.86,ENE,57,0.0,2.2,95,0.00,,,0.00,VWS V13.01,2013-03-12 14:59:00,
2013-03-12 11:04:00,53.1,51.7,29.86,SE,135,2.7,2.7,95,0.00,,,0.00,VWS V13.01,2013-03-12 15:04:00,
2013-03-12 11:09:00,53.1,51.7,29.86,SE,133,0.0,0.0,95,0.00,,,0.00,VWS V13.01,2013-03-12 15:09:00,
2013-03-12 11:14:00,53.1,51.7,29.86,SE,142,0.0,3.1,95,0.00,,,0.00,VWS V13.01,2013-03-12 15:14:00,
2013-03-12 11:19:00,53.1,52.0,29.83,SSE,147,0.0,0.0,96,0.00,,,0.00,VWS V13.01,2013-03-12 15:19:00,
2013-03-12 11:24:00,53.1,52.0,29.83,ENE,70,2.2,2.2,96,0.00,,,0.00,VWS V13.01,2013-03-12 15:24:00,
2013-03-12 11:29:00,53.2,52.1,29.83,SSE,168,3.6,3.6,96,0.00,,,0.00,VWS V13.01,2013-03-12 15:29:00,
2013-03-12 11:34:00,53.2,52.1,29.83,SSE,162,0.0,0.0,96,0.00,,,0.00,VWS V13.01,2013-03-12 15:34:00,
2013-03-12 11:39:00,53.2,52.1,29.83,SSE,148,0.0,0.0,96,0.00,,,0.00,VWS V13.01,2013-03-12 15:39:00,
2013-03-12 11:44:00,53.2,52.1,29.83,SSE,148,0.0,0.0,96,0.00,,,0.00,VWS V13.01,2013-03-12 15:44:00,
2013-03-12 11:49:00,53.2,52.1,29.83,East,83,2.2,2.2,96,0.00,,,0.00,VWS V13.01,2013-03-12 15:49:00,
2013-03-12 11:54:00,53.1,52.0,29.83,WSW,245,0.0,0.0,96,0.00,,,0.00,VWS V13.01,2013-03-12 15:54:00,
2013-03-12 11:59:00,53.1,52.0,29.83,WSW,245,0.0,0.0,96,0.00,,,0.00,VWS V13.01,2013-03-12 15:59:00,
2013-03-12 12:04:00,53.1,52.0,29.80,WSW,245,0.0,0.0,96,0.00,,,0.00,VWS V13.01,2013-03-12 16:04:00,
2013-03-12 12:09:00,53.2,52.1,29.80,ENE,71,0.0,0.0,96,0.00,,,0.00,VWS V13.01,2013-03-12 16:09:00,
2013-03-12 12:14:00,53.2,52.4,29.80,East,83,2.7,2.7,97,0.00,,,0.00,VWS V13.01,2013-03-12 16:14:00,
2013-03-12 12:19:00,53.2,52.4,29.80,ESE,110,0.0,0.0,97,0.00,,,0.00,VWS V13.01,2013-03-12 16:19:00,
2013-03-12 12:24:00,53.4,52.6,29.80,SSE,168,3.1,3.1,97,0.00,,,0.00,VWS V13.01,2013-03-12 16:24:00,
2013-03-12 12:29:00,53.4,52.6,29.80,ESE,108,2.7,3.1,97,0.00,,,0.00,VWS V13.01,2013-03-12 16:29:00,
2013-03-12 12:34:00,53.4,52.6,29.80,North,1,2.2,2.2,97,0.00,,,0.00,VWS V13.01,2013-03-12 16:34:00,
2013-03-12 12:39:00,53.4,52.6,29.80,NNW,338,0.0,2.2,97,0.00,,,0.00,VWS V13.01,2013-03-12 16:39:00,
2013-03-12 12:44:00,53.4,52.6,29.80,North,349,2.2,2.2,97,0.00,,,0.00,VWS V13.01,2013-03-12 16:44:00,
2013-03-12 12:49:00,53.4,52.6,29.77,SSE,165,2.2,2.2,97,0.00,,,0.00,VWS V13.01,2013-03-12 16:49:00,
2013-03-12 12:54:00,53.2,52.1,29.77,SSE,165,2.2,2.2,96,0.00,,,0.00,VWS V13.01,2013-03-12 16:54:00,
2013-03-12 12:59:00,53.2,52.1,29.77,South,176,2.2,2.7,96,0.00,,,0.00,VWS V13.01,2013-03-12 16:59:00,
2013-03-12 13:04:00,53.4,52.3,29.77,ESE,106,3.1,3.1,96,0.00,,,0.00,VWS V13.01,2013-03-12 17:04:00,
2013-03-12 13:09:00,53.4,52.6,29.77,ESE,118,0.0,0.0,97,0.00,,,0.00,VWS V13.01,2013-03-12 17:09:00,
2013-03-12 13:14:00,53.4,52.6,29.77,SE,145,4.0,4.0,97,0.00,,,0.00,VWS V13.01,2013-03-12 17:14:00,
2013-03-12 13:19:00,53.8,53.0,29.77,SE,145,4.0,4.0,97,0.00,,,0.00,VWS V13.01,2013-03-12 17:19:00,
2013-03-12 13:24:00,53.8,53.0,29.77,East,83,3.1,4.0,97,0.00,,,0.00,VWS V13.01,2013-03-12 17:24:00,
2013-03-12 13:29:00,53.8,53.0,29.77,ENE,68,3.1,3.1,97,0.00,,,0.00,VWS V13.01,2013-03-12 17:29:00,
2013-03-12 13:34:00,53.8,53.0,29.74,ENE,68,0.0,5.4,97,0.00,,,0.00,VWS V13.01,2013-03-12 17:34:00,
2013-03-12 13:39:00,53.8,53.0,29.74,ESE,110,3.6,3.6,97,0.00,,,0.00,VWS V13.01,2013-03-12 17:39:00,
2013-03-12 13:44:00,53.8,52.7,29.74,NE,40,0.0,0.0,96,0.00,,,0.00,VWS V13.01,2013-03-12 17:44:00,
2013-03-12 13:49:00,53.8,52.7,29.71,NE,40,0.0,0.0,96,0.00,,,0.00,VWS V13.01,2013-03-12 17:49:00,
2013-03-12 13:54:00,54.0,53.1,29.71,East,95,3.1,3.1,97,0.00,,,0.00,VWS V13.01,2013-03-12 17:54:00,
2013-03-12 13:59:00,54.0,53.1,29.71,ENE,70,2.7,2.7,97,0.00,,,0.00,VWS V13.01,2013-03-12 17:59:00,
2013-03-12 14:04:00,54.0,53.1,29.71,NE,44,0.0,2.7,97,0.00,,,0.00,VWS V13.01,2013-03-12 18:04:00,
2013-03-12 14:09:00,54.1,53.3,29.71,SE,136,0.0,0.0,97,0.00,,,0.00,VWS V13.01,2013-03-12 18:09:00,
2013-03-12 14:14:00,54.3,53.5,29.71,SE,136,0.0,0.0,97,0.00,,,0.00,VWS V13.01,2013-03-12 18:14:00,
2013-03-12 14:19:00,54.5,53.7,29.71,SE,136,0.0,0.0,97,0.00,,,0.00,VWS V13.01,2013-03-12 18:19:00,
2013-03-12 14:24:00,54.5,53.7,29.71,WSW,257,0.0,2.2,97,0.00,,,0.00,VWS V13.01,2013-03-12 18:24:00,
2013-03-12 14:29:00,54.5,53.7,29.71,WSW,257,0.0,0.0,97,0.00,,,0.00,VWS V13.01,2013-03-12 18:29:00,
2013-03-12 14:34:00,54.7,54.1,29.68,East,96,0.0,2.7,98,0.00,,,0.00,VWS V13.01,2013-03-12 18:34:00,
2013-03-12 14:39:00,54.7,54.1,29.68,East,96,0.0,0.0,98,0.00,,,0.00,VWS V13.01,2013-03-12 18:39:00,
2013-03-12 14:44:00,55.0,54.5,29.68,South,181,4.0,4.0,98,0.00,,,0.00,VWS V13.01,2013-03-12 18:44:00,
2013-03-12 14:49:00,55.0,54.2,29.65,NE,43,3.6,4.0,97,0.00,,,0.00,VWS V13.01,2013-03-12 18:49:00,
2013-03-12 14:54:00,55.0,54.2,29.65,SW,228,5.4,5.4,97,0.00,,,0.00,VWS V13.01,2013-03-12 18:54:00,
2013-03-12 14:59:00,55.0,54.2,29.65,ESE,115,3.6,5.4,97,0.00,,,0.00,VWS V13.01,2013-03-12 18:59:00,
2013-03-12 15:04:00,55.0,53.9,29.65,North,351,2.7,2.7,96,0.00,,,0.00,VWS V13.01,2013-03-12 19:04:00,
2013-03-12 15:09:00,55.0,53.6,29.65,SSW,199,0.0,2.7,95,0.00,,,0.00,VWS V13.01,2013-03-12 19:09:00,
2013-03-12 15:14:00,54.9,53.5,29.65,NE,51,0.0,2.7,95,0.00,,,0.00,VWS V13.01,2013-03-12 19:14:00,
2013-03-12 15:19:00,54.9,53.5,29.65,NE,50,2.7,2.7,95,0.00,,,0.00,VWS V13.01,2013-03-12 19:19:00,
2013-03-12 15:24:00,54.9,53.7,29.65,East,87,0.0,4.0,96,2.47,,,2.47,VWS V13.01,2013-03-12 19:24:00,
2013-03-12 15:29:00,54.9,53.7,29.65,East,91,0.0,3.1,96,2.47,,,2.47,VWS V13.01,2013-03-12 19:29:00,
2013-03-12 15:34:00,54.9,53.7,29.65,SSE,161,0.0,3.6,96,2.47,,,2.47,VWS V13.01,2013-03-12 19:34:00,
2013-03-12 15:39:00,54.9,53.7,29.65,SSW,196,2.2,2.2,96,2.47,,,2.47,VWS V13.01,2013-03-12 19:39:00,
2013-03-12 15:44:00,54.9,53.7,29.65,ENE,72,0.0,2.2,96,2.47,,,2.47,VWS V13.01,2013-03-12 19:44:00,
2013-03-12 15:49:00,55.0,54.2,29.65,East,83,0.0,0.0,97,2.47,,,2.47,VWS V13.01,2013-03-12 19:49:00,
2013-03-12 15:54:00,55.2,54.4,29.65,East,83,0.0,0.0,97,2.47,,,2.47,VWS V13.01,2013-03-12 19:54:00,
2013-03-12 15:59:00,55.2,54.4,29.65,East,83,0.0,0.0,97,2.47,,,2.47,VWS V13.01,2013-03-12 19:59:00,
2013-03-12 16:04:00,55.4,54.6,29.62,East,80,0.0,0.0,97,2.47,,,2.47,VWS V13.01,2013-03-12 20:04:00,
2013-03-12 16:09:00,55.4,54.6,29.62,East,83,0.0,0.0,97,2.47,,,2.47,VWS V13.01,2013-03-12 20:09:00,
2013-03-12 16:14:00,55.4,54.6,29.62,SSE,151,0.0,0.0,97,2.47,,,2.47,VWS V13.01,2013-03-12 20:14:00,
2013-03-12 16:19:00,55.6,54.8,29.62,SW,219,0.0,3.1,97,2.47,,,2.47,VWS V13.01,2013-03-12 20:19:00,
2013-03-12 16:24:00,55.8,55.2,29.62,SW,219,0.0,2.2,98,0.00,,,2.47,VWS V13.01,2013-03-12 20:24:00,
2013-03-12 16:29:00,55.8,55.2,29.62,SW,219,0.0,0.0,98,0.00,,,2.47,VWS V13.01,2013-03-12 20:29:00,
2013-03-12 16:34:00,55.8,55.2,29.62,SW,219,0.0,0.0,98,0.00,,,2.47,VWS V13.01,2013-03-12 20:34:00,
2013-03-12 16:39:00,55.9,55.4,29.62,SW,219,0.0,0.0,98,0.00,,,2.47,VWS V13.01,2013-03-12 20:39:00,
2013-03-12 16:44:00,55.9,55.4,29.62,SW,219,0.0,0.0,98,0.00,,,2.47,VWS V13.01,2013-03-12 20:44:00,
2013-03-12 16:49:00,56.1,55.6,29.62,SW,219,0.0,0.0,98,0.00,,,2.47,VWS V13.01,2013-03-12 20:49:00,
2013-03-12 16:54:00,56.1,55.6,29.62,SW,219,0.0,0.0,98,0.00,,,2.47,VWS V13.01,2013-03-12 20:54:00,
2013-03-12 16:59:00,56.5,55.9,29.62,SW,219,0.0,0.0,98,0.00,,,2.47,VWS V13.01,2013-03-12 20:59:00,
2013-03-12 17:04:00,56.7,56.1,29.62,SW,219,0.0,0.0,98,0.00,,,2.47,VWS V13.01,2013-03-12 21:04:00,
2013-03-12 17:09:00,57.0,56.5,29.62,SW,227,0.0,0.0,98,0.00,,,2.47,VWS V13.01,2013-03-12 21:09:00,
2013-03-12 17:13:00,57.2,56.6,29.62,SE,145,0.0,2.2,98,0.00,,,2.47,VWS V13.01,2013-03-12 21:13:00,
2013-03-12 17:18:00,57.2,56.6,29.62,SE,145,0.0,0.0,98,0.00,,,2.47,VWS V13.01,2013-03-12 21:18:00,
2013-03-12 17:23:00,57.4,56.8,29.62,SSW,193,0.0,0.0,98,0.00,,,2.47,VWS V13.01,2013-03-12 21:23:00,
2013-03-12 17:28:00,57.7,57.2,29.62,SSW,193,0.0,0.0,98,0.00,,,2.47,VWS V13.01,2013-03-12 21:28:00,
2013-03-12 17:34:00,57.9,57.4,29.62,SSW,210,0.0,0.0,98,0.00,,,2.47,VWS V13.01,2013-03-12 21:34:00,
2013-03-12 17:39:00,58.3,57.7,29.62,SSW,210,0.0,0.0,98,0.00,,,2.47,VWS V13.01,2013-03-12 21:39:00,
2013-03-12 17:43:00,57.9,55.9,29.62,SSE,163,0.0,4.9,93,0.00,,,2.47,VWS V13.01,2013-03-12 21:43:00,
2013-03-12 17:48:00,58.1,55.8,29.65,SW,219,0.0,0.0,92,0.00,,,2.47,VWS V13.01,2013-03-12 21:48:00,
2013-03-12 17:53:00,57.9,54.1,29.65,SW,219,0.0,0.0,87,0.00,,,2.47,VWS V13.01,2013-03-12 21:53:00,
2013-03-12 17:58:00,57.9,54.1,29.65,SW,218,0.0,0.0,87,0.00,,,2.47,VWS V13.01,2013-03-12 21:58:00,
2013-03-12 18:03:00,57.6,53.1,29.65,SW,221,0.0,2.2,85,0.00,,,2.47,VWS V13.01,2013-03-12 22:03:00,
2013-03-12 18:08:00,57.4,53.5,29.65,SSE,153,0.0,0.0,87,0.00,,,2.47,VWS V13.01,2013-03-12 22:08:00,
2013-03-12 18:13:00,57.4,53.5,29.65,SSE,156,3.6,3.6,87,0.00,,,2.47,VWS V13.01,2013-03-12 22:13:00,
2013-03-12 18:18:00,57.2,52.7,29.65,SW,227,0.0,2.2,85,0.00,,,2.47,VWS V13.01,2013-03-12 22:18:00,
2013-03-12 18:23:00,57.2,52.7,29.65,SSW,196,0.0,2.7,85,0.00,,,2.47,VWS V13.01,2013-03-12 22:23:00,
2013-03-12 18:28:00,56.8,51.4,29.68,SSW,211,0.0,0.0,82,0.00,,,2.47,VWS V13.01,2013-03-12 22:28:00,
2013-03-12 18:33:00,56.7,50.6,29.68,SW,227,0.0,2.2,80,0.00,,,2.47,VWS V13.01,2013-03-12 22:33:00,
2013-03-12 18:38:00,56.7,49.9,29.68,SW,229,0.0,0.0,78,0.00,,,2.47,VWS V13.01,2013-03-12 22:38:00,
2013-03-12 18:43:00,55.9,47.8,29.68,West,261,2.2,3.6,74,0.00,,,2.47,VWS V13.01,2013-03-12 22:43:00,
2013-03-12 18:48:00,55.9,46.7,29.71,NW,313,2.2,4.0,71,0.00,,,2.47,VWS V13.01,2013-03-12 22:48:00,
2013-03-12 18:53:00,54.9,44.1,29.71,SW,236,0.0,2.7,67,0.00,,,2.47,VWS V13.01,2013-03-12 22:53:00,
2013-03-12 18:58:00,54.7,43.6,29.71,West,274,0.0,2.7,66,0.00,,,2.47,VWS V13.01,2013-03-12 22:58:00,
2013-03-12 19:03:00,54.7,43.6,29.71,West,267,0.0,3.6,66,0.00,,,2.47,VWS V13.01,2013-03-12 23:03:00,
2013-03-12 19:08:00,54.1,43.4,29.71,West,274,0.0,3.1,67,0.00,,,2.47,VWS V13.01,2013-03-12 23:08:00,
2013-03-12 19:13:00,53.6,42.5,29.71,West,270,0.0,0.0,66,0.00,,,2.47,VWS V13.01,2013-03-12 23:13:00,
2013-03-12 19:18:00,53.2,43.0,29.74,WSW,251,0.0,0.0,68,0.00,,,2.47,VWS V13.01,2013-03-12 23:18:00,
2013-03-12 19:23:00,53.1,41.6,29.74,WSW,251,0.0,0.0,65,0.00,,,2.47,VWS V13.01,2013-03-12 23:23:00,
2013-03-12 19:28:00,53.1,42.0,29.74,NNE,16,3.1,3.1,66,0.00,,,2.47,VWS V13.01,2013-03-12 23:28:00,
2013-03-12 19:33:00,53.1,41.6,29.74,NNE,21,0.0,0.0,65,0.00,,,2.47,VWS V13.01,2013-03-12 23:33:00,
2013-03-12 19:38:00,53.1,42.4,29.74,WSW,249,2.7,3.1,67,0.00,,,2.47,VWS V13.01,2013-03-12 23:38:00,
2013-03-12 19:43:00,52.7,41.3,29.74,SW,226,0.0,0.0,65,0.00,,,2.47,VWS V13.01,2013-03-12 23:43:00,
2013-03-12 19:49:00,52.5,40.3,29.74,SW,226,0.0,0.0,63,0.00,,,2.47,VWS V13.01,2013-03-12 23:49:00,
2013-03-12 19:54:00,52.5,41.1,29.74,SW,226,0.0,0.0,65,0.00,,,2.47,VWS V13.01,2013-03-12 23:54:00,
2013-03-12 19:59:00,52.3,40.9,29.74,SW,226,0.0,0.0,65,0.00,,,2.47,VWS V13.01,2013-03-12 23:59:00,
2013-03-12 20:04:00,52.2,39.1,29.74,SW,226,0.0,0.0,61,0.00,,,2.47,VWS V13.01,2013-03-13 00:04:00,
2013-03-12 20:09:00,52.0,37.7,29.74,West,273,2.2,3.1,58,0.00,,,2.47,VWS V13.01,2013-03-13 00:09:00,
2013-03-12 20:14:00,51.8,36.6,29.74,WSW,258,2.2,5.4,56,0.00,,,2.47,VWS V13.01,2013-03-13 00:14:00,
2013-03-12 20:19:00,51.8,36.6,29.77,WSW,257,0.0,2.2,56,0.00,,,2.47,VWS V13.01,2013-03-13 00:19:00,
2013-03-12 20:24:00,51.8,36.6,29.77,West,259,2.2,3.1,56,0.00,,,2.47,VWS V13.01,2013-03-13 00:24:00,
2013-03-12 20:29:00,51.1,34.6,29.77,WSW,258,0.0,0.0,53,0.00,,,2.47,VWS V13.01,2013-03-13 00:29:00,
2013-03-12 20:34:00,51.1,34.6,29.77,WSW,255,3.1,3.1,53,0.00,,,2.47,VWS V13.01,2013-03-13 00:34:00,
2013-03-12 20:39:00,50.5,34.1,29.77,WSW,238,4.0,4.0,53,0.00,,,2.47,VWS V13.01,2013-03-13 00:39:00,
2013-03-12 20:44:00,50.0,33.6,29.77,WSW,249,0.0,3.6,53,0.00,,,2.47,VWS V13.01,2013-03-13 00:44:00,
2013-03-12 20:49:00,50.0,33.6,29.77,WSW,256,0.0,0.0,53,0.00,,,2.47,VWS V13.01,2013-03-13 00:49:00,
2013-03-12 20:54:00,49.5,34.4,29.77,WSW,252,0.0,0.0,56,0.00,,,2.47,VWS V13.01,2013-03-13 00:54:00,
2013-03-12 20:59:00,49.5,34.4,29.77,NW,312,2.2,2.7,56,0.00,,,2.47,VWS V13.01,2013-03-13 00:59:00,
2013-03-12 21:04:00,48.9,34.4,29.77,WSW,249,0.0,3.6,57,0.00,,,2.47,VWS V13.01,2013-03-13 01:04:00,
2013-03-12 21:09:00,48.9,34.4,29.80,WSW,253,0.0,2.2,57,0.00,,,2.47,VWS V13.01,2013-03-13 01:09:00,
2013-03-12 21:14:00,48.7,33.3,29.80,WSW,253,0.0,3.1,55,0.00,,,2.47,VWS V13.01,2013-03-13 01:14:00,
2013-03-12 21:19:00,48.6,33.6,29.80,WSW,254,0.0,2.2,56,0.00,,,2.47,VWS V13.01,2013-03-13 01:19:00,
2013-03-12 21:24:00,48.6,33.1,29.80,WSW,254,0.0,0.0,55,0.00,,,2.47,VWS V13.01,2013-03-13 01:24:00,
2013-03-12 21:29:00,48.2,32.8,29.80,WSW,249,0.0,0.0,55,0.00,,,2.47,VWS V13.01,2013-03-13 01:29:00,
2013-03-12 21:34:00,48.2,33.3,29.80,WSW,249,0.0,0.0,56,0.00,,,2.47,VWS V13.01,2013-03-13 01:34:00,
2013-03-12 21:39:00,47.8,32.9,29.80,NW,307,2.2,2.2,56,0.00,,,2.47,VWS V13.01,2013-03-13 01:39:00,
2013-03-12 21:44:00,47.8,32.9,29.80,NW,315,0.0,2.2,56,0.00,,,2.47,VWS V13.01,2013-03-13 01:44:00,
2013-03-12 21:48:00,47.5,32.6,29.80,WNW,289,0.0,0.0,56,0.00,,,2.47,VWS V13.01,2013-03-13 01:48:00,
2013-03-12 21:54:00,47.3,32.0,29.80,West,269,0.0,0.0,55,0.00,,,2.47,VWS V13.01,2013-03-13 01:54:00,
2013-03-12 21:59:00,47.3,32.0,29.80,WNW,293,0.0,0.0,55,0.00,,,2.47,VWS V13.01,2013-03-13 01:59:00,
2013-03-12 22:03:00,47.3,32.0,29.80,WNW,286,0.0,0.0,55,0.00,,,2.47,VWS V13.01,2013-03-13 02:03:00,
2013-03-12 22:08:00,47.3,32.0,29.80,WNW,285,0.0,0.0,55,0.00,,,2.47,VWS V13.01,2013-03-13 02:08:00,
2013-03-12 22:13:00,46.9,32.5,29.80,West,267,0.0,0.0,57,0.00,,,2.47,VWS V13.01,2013-03-13 02:13:00,
2013-03-12 22:18:00,46.8,31.9,29.80,West,267,0.0,0.0,56,0.00,,,2.47,VWS V13.01,2013-03-13 02:18:00,
2013-03-12 22:23:00,46.6,31.7,29.80,West,267,0.0,0.0,56,0.00,,,2.47,VWS V13.01,2013-03-13 02:23:00,
2013-03-12 22:28:00,46.6,31.7,29.80,West,267,0.0,0.0,56,0.00,,,2.47,VWS V13.01,2013-03-13 02:28:00,
2013-03-12 22:33:00,46.2,31.8,29.80,West,267,0.0,0.0,57,0.00,,,2.47,VWS V13.01,2013-03-13 02:33:00,
2013-03-12 22:38:00,46.2,31.8,29.80,West,267,0.0,0.0,57,0.00,,,2.47,VWS V13.01,2013-03-13 02:38:00,
2013-03-12 22:43:00,45.9,31.1,29.80,West,268,0.0,3.6,56,0.00,,,2.47,VWS V13.01,2013-03-13 02:43:00,
2013-03-12 22:48:00,45.7,31.3,29.83,West,271,0.0,0.0,57,0.00,,,2.47,VWS V13.01,2013-03-13 02:48:00,
2013-03-12 22:53:00,45.7,31.8,29.83,West,270,0.0,0.0,58,0.00,,,2.47,VWS V13.01,2013-03-13 02:53:00,
2013-03-12 22:58:00,45.5,31.6,29.83,West,271,0.0,0.0,58,0.00,,,2.47,VWS V13.01,2013-03-13 02:58:00,
2013-03-12 23:03:00,45.3,31.4,29.83,West,270,0.0,0.0,58,0.00,,,2.47,VWS V13.01,2013-03-13 03:03:00,
2013-03-12 23:08:00,45.3,31.4,29.83,West,270,0.0,0.0,58,0.00,,,2.47,VWS V13.01,2013-03-13 03:08:00,
2013-03-12 23:13:00,45.0,31.5,29.83,West,270,0.0,0.0,59,0.00,,,2.47,VWS V13.01,2013-03-13 03:13:00,
2013-03-12 23:18:00,44.8,31.3,29.83,West,270,0.0,0.0,59,0.00,,,2.47,VWS V13.01,2013-03-13 03:18:00,
2013-03-12 23:23:00,44.8,31.3,29.80,West,270,0.0,0.0,59,0.00,,,2.47,VWS V13.01,2013-03-13 03:23:00,
2013-03-12 23:28:00,44.4,30.6,29.80,West,271,0.0,2.7,58,0.00,,,2.47,VWS V13.01,2013-03-13 03:28:00,
2013-03-12 23:33:00,44.4,30.6,29.80,West,271,0.0,0.0,58,0.00,,,2.47,VWS V13.01,2013-03-13 03:33:00,
2013-03-12 23:38:00,44.2,30.8,29.80,West,271,0.0,0.0,59,0.00,,,2.47,VWS V13.01,2013-03-13 03:38:00,
2013-03-12 23:43:00,44.1,31.1,29.80,West,271,0.0,0.0,60,0.00,,,2.47,VWS V13.01,2013-03-13 03:43:00,
2013-03-12 23:48:00,43.7,31.1,29.83,West,271,0.0,0.0,61,0.00,,,2.47,VWS V13.01,2013-03-13 03:48:00,
2013-03-12 23:53:00,43.7,31.1,29.83,West,270,0.0,0.0,61,0.00,,,2.47,VWS V13.01,2013-03-13 03:53:00,
2013-03-12 23:58:00,43.7,30.3,29.83,West,271,0.0,0.0,59,0.00,,,2.47,VWS V13.01,2013-03-13 03:58:00,